Weather in Ponika

Russia / Ulyanovsk Oblast     53°11′20″N   47°09′08″E
temp.,
°C
wind,
m/s
gust,
m/s
humid.,
%
clouds,
%
prec.,
mm/h
press.,
hPa
HPBL,
m
25 february, thu
thu2501:00−24wnw228988 0.0 103720
04:00−22wsw228891 0.0 103626
07:00−21ssw2490100 0.0 103388
10:00−18ssw4789100 0.0 1030300
13:00−16s61095100 0.9 1027460
16:00−15ssw71395100 2.9 1022587
19:00−13s61295100 1.5 1019617
22:00−11ssw4995100 2.4 1016441
26 february, fri
fri2601:00−11sse3696100 0.6 1013170
04:00−10sse1296100 1.1 101334
07:00−11sse009792 0.1 101221
10:00−9se119691 0.2 101335
13:00−4ese229593 0.1 1011170
16:00−3se349896 0.6 1010149
19:00−2se4699100 1.7 1007151
22:00+2sw411100100 4.3 1003279
27 february, sat
sat2701:00+2w512100100 1.3 1000360
04:00+1w5138992 1.3 1000545
07:000w5129483 0.1 1000757
10:00+1w5109189 0.1 1000776
13:00+1w59100100 0.1 1000600
16:00+1wsw5994100 0.1 1000612
19:00−2wsw489399 0.0 999203
22:00−2wsw41094100 0.0 1000291
28 february, sun
sun2801:00−1wsw4996100 0.2 999355
04:00−2wsw3797100 0.7 1001210
07:00−7n71194100 0.8 1003343
10:00−11nnw6993100 1.2 1005372
13:00−9nnw6991100 0.1 1008477
16:00−9nnw6989100 0.2 1010586
19:00−14nnw51092100 0.0 1012351
22:00−15nnw5109399 0.1 1015308
1 march, mon
mon101:00−16nnw4109487 0.0 1017259
04:00−16nnw5109393 0.1 1018389
07:00−19nnw4109395 0.0 1021290
10:00−18nnw589266 0.0 1022329
13:00−14nnw588963 0.0 1023449
16:00−12nnw578868 0.0 1024453
19:00−16nw349342 0.0 102533
22:00−18wnw339421 0.0 102629